www.pogodaiklimat.ru

Погода и климат >> Архив погоды >> Китай >> Внутренняя Монголия >> Эрэн-Хото


ПОГОДА в Эрэн-Хото

  • Прогноз погоды в Эрэн-Хото
  • Монитор погоды в Эрэн-Хото

АРХИВ ПОГОДЫ в Эрэн-Хото

Время (UTC), дата Ветер
(напр.,м/с)
 
Видим.   Явления Облачность Т
(С)
Тd
(С)
f
(%)
Тe
(С)
Тes
(С)
Комфортность P
(гПа)
Po
(гПа)
Тmin
(С)
Tmax
(С)
R
(мм)
R24
(мм)
S
(см)
06 16.08 С 7 30 км 5/5 1500 м
[]
+21.2 +5.9 37 +22 +24 комфорт 1008.1 900.4 +10.1
09 16.08 СЗ 6 30 км 4/4 1500 м
[]
+21.5 +5.0 34 +22 +23 комфорт 1007.8 901.0
12 16.08 СЗ 4 30 км ясно +18.2 +6.1 45 +18 +18 1008.0 900.2
15 16.08 СЗ 3 30 км н/о +15.1 +7.2 59 +15 +15 1008.3 899.2
18 16.08 СЗ 2 29 км ?/? +11.8 +7.9 77 +11 +11 1008.3 900.7 +22.1
21 16.08 СЗ 3 22 км н/о +9.7 +7.6 87 +7 +7 1008.9 897.8
00 17.08 СЗ 3 25 км ясно +16.1 +8.1 59 +16 +19 1009.5 902.0
03 17.08 С 5 30 км 4/4 1500 м
[]
+21.3 +3.0 30 +21 +26 комфорт 1009.1 902.1
06 17.08 С 5 30 км 3/3 1500 м
[]
+23.3 +4.8 30 +23 +29 комфорт 1007.0 899.9 +9.5
09 17.08 С 3 30 км 4/4
[]
+24.2 +3.5 26 +24 +26 комфорт 1006.3 900.6
12 17.08 СВ 3 8000 м 3/3
[]
+20.2 +5.4 38 +21 +21 комфорт 1005.7 898.9
15 17.08 штиль 0 28 км н/о +15.3 +8.8 65 +15 +15 1006.4 897.6
18 17.08 Ю 1 19 км ?/? +15.6 +9.5 67 +16 +16 1005.3 899.0 +24.6
21 17.08 Ю 2 23 км н/о +15.2 +9.1 67 +15 +15 1005.8 897.0
00 18.08 Ю 3 23 км 9/9 1500 м
[]
+18.0 +7.1 49 +18 +18 1005.5 899.1
03 18.08 Ю 1 30 км 9/9 1500 м
[]
+25.2 +6.9 31 +25 +27 комфорт 1005.1 899.8
06 18.08 С 2 30 км 9/9 1500 м
[]
+29.2 +6.6 24 +28 +29 жарко 1002.5 897.5 +13.9
09 18.08 С 5 30 км 8/8 1500 м
[]
+27.8 +4.8 23 +27 +27 жарко 1003.0 898.8
12 18.08 СЗ 3 30 км 3/3
[]
+22.8 +5.7 33 +23 +23 комфорт 1004.7 898.8
15 18.08 СЗ 3 30 км н/о +19.0 +8.6 51 +20 +20 1006.0 898.5
18 18.08 СЗ 2 30 км ?/? +17.2 +8.9 58 +18 +18 1005.3 900.3 +29.2
21 18.08 Ю 3 29 км н/о +13.3 +9.0 75 +12 +12 1006.7 897.1
00 19.08 СЗ 2 29 км 9/9
[]
+17.2 +10.1 63 +18 +18 1007.9 901.5
03 19.08 СВ 2 30 км 9/9
[]
+24.0 +9.6 40 +25 +26 комфорт 1006.8 900.9
06 19.08 С 1 30 км ?/? +26.6 +7.1 29 +26 +26 жарко 1005.6 900.1 +12.8
09 19.08 В 3 30 км 9/9 1500 м
[]
+26.2 +7.3 30 +26 +26 жарко 1004.5 899.6
12 19.08 В 3 30 км слаб. дождь 9/9 1500 м
[]
+24.8 +6.5 31 +25 +25 комфорт 1004.2 898.5 0.0
15 19.08 Ю 6 7000 м слаб. дождь н/о +18.4 +15.8 85 +18 +18 1004.8 897.2
18 19.08 Ю 1 8000 м слаб. дождь ?/? +16.3 +15.3 94 +17 +17 1004.2 898.7 +27.2 3
21 19.08 Ю 2 13 км н/о +16.1 +15.3 95 +16 +16 1003.8 895.5
00 20.08 Ю 4 13 км 4/4 1500 м
[]
+17.7 +16.0 90 +17 +19 1003.6 898.1 0.1
03 20.08 З 6 24 км 4/4 1500 м
[]
+22.0 +13.4 58 +25 +28 комфорт 1005.0 898.6
06 20.08 З 12
{18}
30 км 4/4 1500 м
[]
+24.0 +8.0 36 +24 +24 комфорт 1005.5 899.4 +15.5
09 20.08 СЗ 10
{20}
30 км 3/3 1500 м
[]
+22.7 +5.6 33 +23 +23 комфорт 1007.7 901.3
12 20.08 З 5
{20}
28 км ясно +18.9 +6.4 44 +19 +19 1010.7 903.4
15 20.08 З 2 20 км н/о +14.4 +7.2 62 +14 +14 1012.8 902.9
18 20.08 З 3 20 км ?/? +12.9 +7.1 68 +12 +12 1013.5 906.0 +24.2
21 20.08 СЗ 3 17 км н/о +11.5 +6.8 73 +10 +10 1014.5 903.4
00 21.08 З 3 19 км 4/4
[]
+14.7 +7.0 60 +14 +16 1014.9 906.7
03 21.08 З 4 20 км 9/9 1500 м
[]
+20.4 +6.0 39 +21 +22 комфорт 1014.4 906.5
06 21.08 З 6 26 км 9/9 1500 м
[]
+23.0 +5.0 31 +23 +24 комфорт 1013.2 905.5 +10.0
09 21.08 СЗ 6 30 км 4/4
[]
+22.6 +3.7 29 +23 +23 комфорт 1013.1 906.1
12 21.08 СЗ 2 30 км 6/6
[]
+19.1 +4.5 38 +20 +20 1013.9 905.8
15 21.08 штиль 0 26 км н/о +14.0 +6.1 59 +14 +14 1014.3 904.1
18 21.08 СЗ 2 22 км ?/? +12.0 +5.2 63 +11 +11 1014.1 906.2 +23.6
21 21.08 З 1 20 км н/о +11.5 +4.9 64 +12 +12 1014.4 903.3
00 22.08 З 1 22 км ясно +15.7 +6.2 53 +17 +21 1015.6 907.5
03 22.08 З 4 30 км 3/3
[]
+22.5 +5.4 33 +23 +29 комфорт 1014.9 907.7
06 22.08 З 3 30 км 6/6
[]
+25.6 +4.7 26 +25 +29 комфорт 1013.3 905.9 +11.1
09 22.08 С 6 30 км ясно +25.4 +3.4 24 +24 +26 комфорт 1013.2 907.1
12 22.08 В 3 30 км ясно +21.6 +3.3 30 +22 +22 комфорт 1013.7 906.2
15 22.08 СВ 3 30 км н/о +18.1 +3.9 39 +18 +18 1013.8 905.2
18 22.08 В 3 28 км ?/? +17.0 +2.6 38 +17 +17 1013.5 907.0 +26.3
21 22.08 В 1 23 км н/о +13.4 +4.3 54 +14 +14 1015.2 904.7
00 23.08 В 4 22 км 3/3
[]
+17.4 +5.7 46 +17 +19 1015.2 907.9
03 23.08 В 4 30 км 9/9
[]
+23.5 +4.5 29 +23 +24 комфорт 1014.2 907.4

 

Местоположение метеостанции Эрэн-Хото (Внутренняя Монголия, Китай): широта 43.65 долгота 112.00 высота над уровнем моря 966 м.

В архиве по умолчанию представлена погода в Эрэн-Хото за последнюю неделю. Архивные данные за месяц целиком и за предыдущие месяцы, начиная с января 2011 года, Вы можете получить, выбрав интересующий диапазон дат из раскрывающегося списка и нажав кнопку "Ввод!".


*Определитесь, кто Вы:
робот инопланетянин человек

Внимание! Время в таблицах - всемирное. Для получения местного времени необходимо прибавить поправку, которая равна 8 ч.

Смотрите также архив погоды в соседних городах и на ближайших метеорологических станциях:

Погода в Замун-Ууде (Монголия) (12 км)
Погода в Чжурихе Чжень (Внутренняя Монголия, Китай) (157 км)
Погода в Мандале (Внутренняя Монголия, Китай) (196 км)
Погода в Нарэнбаулаге (Внутренняя Монголия, Китай) (203 км)
Погода в Сайншанде (Монголия) (205 км)
Погода в Хатанбулаге (Монголия) (231 км)
Погода в Баяндэлгэре (Монголия) (233 км)
Погода в Баянчагане (Внутренняя Монголия, Китай) (240 км)
Погода в Дархан-Мумингане (Внутренняя Монголия, Китай) (252 км)
Погода в Хуадэ (Внутренняя Монголия, Китай) (254 км)

Пояснения к столбцам:

Ветер - указаны скорость ветра в м/с - средняя за 10 мин, порывы в срок и между сроками (в фигурных скобках) и направление, откуда дует ветер: С - северный, СВ - северо-восточный, В - восточный, ЮВ - юго-восточный, Ю - южный, ЮЗ - юго-западный, З - западный, СЗ - северо-западный.
Видимость - горизонтальная дальность видимости в метрах или километрах. При видимости от 1 до 10 км при отсутствии осадков обычно наблюдается дымка, при ухудшении видимости до 1 км и менее - туман. В сухую погоду видимость может ухудшаться дымом, пылью или мглою.
Явления - указаны атмосферные явления, наблюдавшиеся в срок или в последний час перед сроком; фигурными скобками обозначены явления, наблюдавшиеся между сроками (за 1-3 часа до срока); квадратными скобками обозначены град или гололедные отложения с указанием их диаметра в мм.
Облачность - указаны через наклонную черту общая и нижняя облачность в баллах и высота нижней границы облаков в метрах; квадратными скобками обозначены формы облаков: Ci - перистые, Cs - перисто-слоистые, Cc - перисто-кучевые, Ac - высококучевые, As - высокослоистые, Sc - слоисто-кучевые, Ns - слоисто-дождевые, Cu - кучевые, Cb - кучево-дождевые. Подробнее классификацию облаков см. в Атласе облаков (PDF).
T - Температура воздуха - температура, измеренная на высоте 2 м над землей.
Td - Температура точки росы - температура, при понижении до которой содержащийся в воздухе водяной пар достигнет насыщения.
f - Относительная влажность воздуха - влажноcть воздуха, измеренная на высоте 2 м над землей.
Te - Эффективная температура - температура, которую ощущает одетый по сезону человек в тени. Характеристика душности погоды. При расчете учитывается влияние влажности воздуха и скорости ветра на теплоощущения человека.
Tes - Эффективная температура на солнце - температура, которую ощущает человек, с поправкой на солнечный нагрев. Характеристика знойности погоды. Зависит от высоты солнца над горизонтом, облачности и скорости ветра. Ночью, в пасмурную погоду, а также при ветре 12 м/с и более поправка равна нулю.
P - Атмосферное давление - приведенное к уровню моря атмосферное давление.
Po - Атмосферное давление - измеренное на уровне метеостанции атмосферное давление.
Tmin - Минимальная температура - минимум температуры воздуха на высоте 2 м над землей.
Tmax - Максимальная температура - максимум температуры воздуха на высоте 2 м над землей.
R - Количество осадков - Количество выпавших осадков за период времени, мм. При наведении курсора мыши на число - период времени, за который выпало указанное количество осадков.
R24 - Количество осадков - Количество выпавших осадков за 24 часа, мм.
S - Снежный покров - Высота снежного покрова, см. При наведении курсора мыши на число - состояние снежного покрова и степень покрытия местности в баллах.